sat.trackr.live / text

‹ back to catalog

STARLINK-31578

NORAD 59321 · 2024-057B

PAYLOAD ACTIVE UNKNOWN

§ Identity

Operator
Country
US
Launch date
2024-03-25
Launch site
AFETR
Launch vehicle
Mass (kg)
RCS (m²)

Purposes: comms

External: N2YO · Heavens-Above · Gunter

§ Orbital elements

Epoch: 2026-09-19T02:22:59.242656Z

Period
94.27 min
Inclination
43.0016°
Eccentricity
0.0001134
Mean motion
15.27572617 rev/d
Perigee alt
482.3 km
Apogee alt
483.8 km
Semi-major
6,861.2 km
B*
4.8724e-5
RAAN
174.3604°
Arg perigee
271.4255°
Mean anomaly
88.6467°
Rev number
13,942

§ Raw data

STARLINK-315781 59321U 24057B   26262.09929679  .00001079  00000+0  48724-4 0  99922 59321  43.0016 174.3604 0001134 271.4255  88.6467 15.27572617139427

JSON: /api/v1/satellites/59321 · /tle

For live sub-satellite position, see the globe view (requires WebGL).

§ Visibility from observer

Set your observer location to see the next 7 days of passes ≥ 10°. The values pass through the URL so the page stays shareable.

No JS? Fill the form by hand. The geolocation button needs JavaScript.